Waarnemingen

Advertentie
Mijn weer
Boulmer, Groot Brittannië (3240): temperatuur & dauwpunt: 15.02.2018 13:00:00 - 21.02.2018 13:00:00 (GMT)Boulmer, Groot Brittannië (3240): windsnelheid & windstoten: 15.02.2018 13:00:00 - 21.02.2018 13:00:00 (GMT)Boulmer, Groot Brittannië (3240): windrichting: 15.02.2018 13:00:00 - 21.02.2018 13:00:00 (GMT)Boulmer, Groot Brittannië (3240): luchtdruk: 15.02.2018 13:00:00 - 21.02.2018 13:00:00 (GMT)Boulmer, Groot Brittannië (3240): zicht: 15.02.2018 13:00:00 - 21.02.2018 13:00:00 (GMT)Boulmer, Groot Brittannië (3240): Zonneschijnduur: 15.02.2018 13:00:00 - 21.02.2018 13:00:00 (GMT)Boulmer, Groot Brittannië (3240): neerslag: 15.02.2018 13:00:00 - 21.02.2018 13:00:00 (GMT)
Datum & Tijd tt [°C] td [°C] ff [km/u] ff [kn] fx [km/u] fx [kn] dd ppp [hPa] vv [km] sd [min] rr [mm]
21.02.2018 13:00:00 - - - - - - - - - - -
21.02.2018 12:00:00 6,3 3,6 9 5 - - N - - 18 0,0
21.02.2018 11:00:00 5,7 2,9 13 7 - - N - - 42 0,0
21.02.2018 10:00:00 5,6 2,1 13 7 - - NW - - 60 0,0
21.02.2018 09:00:00 4,0 1,0 13 7 - - NW - - 48 0,0
21.02.2018 08:00:00 2,8 0,7 13 7 - - WNW - - 0 0,0
21.02.2018 07:00:00 2,7 0,4 11 6 - - NW - - 0 0,0
21.02.2018 06:00:00 3,2 0,5 13 7 - - NW - - 0 0,0
21.02.2018 05:00:00 3,4 0,7 15 8 - - NW - - 0 0,0
21.02.2018 04:00:00 3,7 0,8 16 9 - - NW - - 0 0,0
21.02.2018 03:00:00 4,0 1,2 15 8 - - NW - - 0 0,0
21.02.2018 02:00:00 4,1 1,6 15 8 - - NW 1029,8 10 0 0,0
21.02.2018 01:00:00 4,1 2,2 15 8 - - NW 1029,6 10 0 0,0
21.02.2018 00:00:00 4,5 2,7 15 8 - - NW 1029,3 10 - 0,0
20.02.2018 23:00:00 4,8 2,9 13 7 - - NW 1028,8 10 0 0,0
20.02.2018 22:00:00 5,2 3,1 16 9 - - NNW 1028,6 10 0 0,0
20.02.2018 21:00:00 5,2 3,5 13 7 - - NNW 1028,3 10 0 0,0
20.02.2018 20:00:00 5,6 3,6 13 7 - - NNW 1028,0 10 0 0,0
20.02.2018 19:00:00 6,6 4,1 16 9 - - NNW 1027,7 10 0 0,0
20.02.2018 18:00:00 7,0 3,9 22 12 - - NNW 1027,0 10 0 0,0
20.02.2018 17:00:00 7,4 3,6 26 14 52 28 NNW 1026,1 16 18 0,0
20.02.2018 16:00:00 8,1 3,4 28 15 54 29 NNW 1025,1 10 60 0,0
20.02.2018 15:00:00 8,6 2,9 35 19 57 31 NNW 1024,6 10 60 0,0
20.02.2018 14:00:00 8,8 2,6 35 19 50 27 NW 1023,7 10 60 0,0
20.02.2018 13:00:00 8,7 2,2 34 18 54 29 NW 1023,3 10 60 0,0
20.02.2018 12:00:00 8,6 2,6 28 15 46 25 NW 1023,1 10 42 0,0
20.02.2018 11:00:00 8,1 2,9 26 14 46 25 NW 1022,7 10 48 0,0
20.02.2018 10:00:00 7,2 3,3 28 15 - - WNW 1022,2 10 54 0,0
20.02.2018 09:00:00 5,3 3,4 18 10 - - WNW 1021,7 10 0 0,0
20.02.2018 08:00:00 5,0 4,2 13 7 - - NW 1021,0 10 0 0,0
20.02.2018 07:00:00 5,2 4,3 18 10 - - NW 1020,1 10 0 0,0
20.02.2018 06:00:00 5,5 4,3 24 13 - - NNW 1019,6 10 0 0,2
20.02.2018 05:00:00 7,0 4,3 21 11 - - WNW 1018,7 10 0 0,0
20.02.2018 04:00:00 7,2 5,7 26 14 - - WNW 1018,1 10 0 1,4
20.02.2018 03:00:00 7,2 7,0 18 10 - - WNW 1017,6 8 0 0,0
20.02.2018 02:00:00 5,8 5,8 4 2 - - ZW 1017,5 2,3 0 0,6
20.02.2018 01:00:00 5,6 5,6 8 4 - - Z 1017,5 0,5 0 0,0
20.02.2018 00:00:00 5,2 5,1 4 2 - - ZO 1017,4 0,4 - 0,2
19.02.2018 23:00:00 5,6 5,5 2 1 - - WZW 1017,6 1,7 0 0,0
19.02.2018 22:00:00 5,7 5,5 4 2 - - NNO 1017,6 1,9 0 0,0
19.02.2018 21:00:00 5,9 5,7 4 2 - - NO 1017,6 2,7 0 0,0
19.02.2018 20:00:00 6,4 6,3 4 2 - - WNW 1017,5 10 0 0,0
19.02.2018 19:00:00 6,3 6,2 9 5 - - NW 1017,2 10 0 0,0
19.02.2018 18:00:00 6,3 6,3 4 2 - - NNW 1017,1 8 0 0,2
19.02.2018 17:00:00 6,5 6,5 8 4 - - NNW 1016,7 3,1 0 0,0
19.02.2018 16:00:00 6,5 6,4 9 5 - - N 1016,6 3,4 0 0,0
19.02.2018 15:00:00 6,8 6,6 11 6 - - NNO 1016,2 2,7 0 0,0
19.02.2018 14:00:00 7,8 7,7 9 5 - - NNW 1015,9 3,7 0 0,4
19.02.2018 13:00:00 7,8 7,7 8 4 - - NW 1015,9 2,5 0 0,0
19.02.2018 12:00:00 7,6 7,6 9 5 - - NNW 1015,7 6 0 0,6
19.02.2018 11:00:00 7,3 7,3 5 3 - - NW 1015,6 8 0 1,2
19.02.2018 10:00:00 6,8 6,8 2 1 - - WNW 1015,1 1,0 0 0,2
19.02.2018 09:00:00 6,6 6,6 2 1 - - NNO 1014,8 1,3 0 0,4
19.02.2018 08:00:00 6,0 6,0 2 1 - - W 1014,7 0,9 0 0,2
19.02.2018 07:00:00 5,7 5,7 2 1 - - ZW 1014,2 1,4 0 0,4
19.02.2018 06:00:00 5,3 5,3 5 3 - - ZZW 1014,0 1,1 0 0,8
19.02.2018 05:00:00 5,3 5,2 8 4 - - ZZW 1014,1 0,9 0 0,8
19.02.2018 04:00:00 5,1 5,0 5 3 - - Z 1014,1 0,9 0 0,6
19.02.2018 03:00:00 5,0 5,0 5 3 - - Z 1014,2 0,8 0 0,8
19.02.2018 02:00:00 5,0 4,9 8 4 - - ZZO 1014,7 0,6 0 0,8
19.02.2018 01:00:00 4,9 4,8 5 3 - - ZZO 1015,1 1,0 0 0,0
19.02.2018 00:00:00 4,8 4,6 9 5 - - Z 1015,3 1,6 - 0,0
18.02.2018 23:00:00 4,9 4,6 9 5 - - Z 1015,9 1,6 0 0,6
18.02.2018 22:00:00 4,9 4,6 8 4 - - Z 1016,3 3,1 0 0,2
18.02.2018 21:00:00 5,0 4,7 11 6 - - Z 1016,4 5 0 0,6
18.02.2018 20:00:00 5,1 4,7 2 1 - - ZZW 1017,2 3,0 0 0,4
18.02.2018 19:00:00 5,3 4,9 8 4 - - Z 1017,2 4,3 0 0,2
18.02.2018 18:00:00 5,2 4,5 8 4 - - Z 1017,2 5 0 0,2
18.02.2018 17:00:00 5,8 4,4 15 8 - - ZZO 1017,5 10 0 0,0
18.02.2018 16:00:00 5,7 4,4 11 6 - - ZZO 1017,9 9 0 0,0
18.02.2018 15:00:00 6,0 4,1 11 6 - - ZO 1018,1 9 0 0,0
18.02.2018 14:00:00 6,1 3,9 13 7 - - ZO 1018,6 10 24 0,0
18.02.2018 13:00:00 6,0 4,0 11 6 - - ZZO 1018,8 10 0 0,0
18.02.2018 12:00:00 5,2 3,6 13 7 - - ZZO 1019,0 10 0 0,0
18.02.2018 11:00:00 4,3 3,3 8 4 - - Z 1019,4 10 0 0,0
18.02.2018 10:00:00 2,7 2,1 9 5 - - ZZO 1019,4 10 6 0,0
18.02.2018 09:00:00 0,8 0,5 8 4 - - Z 1019,5 9 24 0,0
18.02.2018 08:00:00 -0,3 -0,7 5 3 - - Z 1019,9 10 6 0,0
18.02.2018 07:00:00 0,2 -0,3 9 5 - - Z 1020,1 10 0 0,0
18.02.2018 06:00:00 -0,4 -1,3 9 5 - - Z 1019,7 10 0 0,0
18.02.2018 05:00:00 0,6 0,2 11 6 - - WZW 1019,5 27 0 0,0
18.02.2018 04:00:00 -0,3 -0,9 11 6 - - ZW 1019,7 12 0 0,0
18.02.2018 03:00:00 1,2 0,4 9 5 - - ZW 1019,7 10 0 0,0
18.02.2018 02:00:00 1,6 1,2 9 5 - - ZZW 1019,9 10 0 0,0
18.02.2018 01:00:00 1,4 0,7 9 5 - - Z 1020,2 10 0 0,0
18.02.2018 00:00:00 1,9 1,0 9 5 - - WZW 1019,8 10 - 0,0
17.02.2018 23:00:00 0,8 0,2 5 3 - - WZW 1019,7 10 0 0,0
17.02.2018 22:00:00 1,3 0,6 5 3 - - ZW 1019,5 10 0 0,0
17.02.2018 21:00:00 2,0 0,6 5 3 - - Z 1019,5 10 0 0,0
17.02.2018 20:00:00 3,0 1,2 11 6 - - Z 1019,2 10 0 0,0
17.02.2018 19:00:00 4,4 1,7 13 7 - - WZW 1019,0 10 0 0,0
17.02.2018 18:00:00 4,9 1,7 15 8 - - ZW 1018,3 10 0 0,0
17.02.2018 17:00:00 5,7 2,1 13 7 - - ZW 1017,5 10 18 0,0
17.02.2018 16:00:00 7,3 2,3 22 12 - - ZW 1017,0 10 30 0,0
17.02.2018 15:00:00 8,2 2,7 18 10 - - ZZW 1016,8 10 18 0,0
17.02.2018 14:00:00 7,8 2,9 22 12 - - WZW 1017,0 10 12 0,0
17.02.2018 13:00:00 8,9 3,3 16 9 - - ZZW 1016,8 10 30 0,0
17.02.2018 12:00:00 7,1 2,6 24 13 - - ZW 1016,9 10 30 0,0
17.02.2018 11:00:00 6,8 3,6 18 10 - - ZZW 1016,9 10 36 0,0
17.02.2018 10:00:00 5,0 3,0 18 10 - - Z 1016,7 10 12 0,0
17.02.2018 09:00:00 3,1 1,9 13 7 - - Z 1016,7 10 0 0,0
17.02.2018 08:00:00 3,4 2,3 15 8 - - Z 1016,4 10 0 0,0
17.02.2018 07:00:00 3,5 2,2 15 8 - - ZZO 1016,3 10 0 0,2
17.02.2018 06:00:00 3,5 1,9 16 9 - - Z 1016,2 10 0 0,0
17.02.2018 05:00:00 4,0 2,1 24 13 - - ZZO 1016,1 10 0 0,0
17.02.2018 04:00:00 3,4 1,4 18 10 - - Z 1016,7 10 0 0,0
17.02.2018 03:00:00 3,5 1,3 21 11 - - Z 1017,1 10 0 0,0
17.02.2018 02:00:00 3,6 1,3 26 14 - - Z 1017,2 10 0 0,0
17.02.2018 01:00:00 2,9 1,2 18 10 - - Z 1017,7 10 0 0,0
17.02.2018 00:00:00 2,8 1,0 13 7 - - Z 1018,1 10 - 0,0
16.02.2018 23:00:00 3,5 1,3 22 12 - - Z 1018,4 10 0 0,0
16.02.2018 22:00:00 3,5 1,7 16 9 - - Z 1018,7 10 0 0,0
16.02.2018 21:00:00 3,6 1,5 13 7 - - ZZW 1018,8 10 0 0,0
16.02.2018 20:00:00 4,0 2,0 18 10 - - ZZW 1019,0 10 0 0,0
16.02.2018 19:00:00 5,0 2,3 18 10 - - ZZO 1019,4 10 0 0,0
16.02.2018 18:00:00 5,5 2,5 18 10 - - Z 1019,6 10 0 0,0
16.02.2018 17:00:00 6,2 2,8 18 10 - - Z 1019,4 10 0 0,0
16.02.2018 16:00:00 7,1 2,2 16 9 - - Z 1019,1 10 0 0,0
16.02.2018 15:00:00 7,1 2,2 15 8 - - ZZO 1019,1 10 12 0,0
16.02.2018 14:00:00 7,4 2,6 16 9 - - ZZW 1019,4 10 - 0,0
16.02.2018 13:00:00 7,5 2,2 28 15 - - ZW 1019,7 - - 0,0
16.02.2018 12:00:00 6,7 2,0 21 11 - - ZZW 1019,7 - - 0,0
16.02.2018 11:00:00 5,9 1,5 28 15 - - ZW 1019,1 - - 0,0
16.02.2018 10:00:00 4,7 0,7 24 13 - - WZW 1018,5 - - 0,0
16.02.2018 09:00:00 3,4 0,0 13 7 - - WZW 1018,1 - - 0,0
16.02.2018 08:00:00 2,3 -0,4 18 10 - - WZW 1017,0 - - 0,0
16.02.2018 07:00:00 1,7 -0,7 18 10 - - ZW 1016,2 - - 0,0
16.02.2018 06:00:00 2,4 -0,5 26 14 - - ZW 1015,4 - - 0,0
16.02.2018 05:00:00 2,3 -0,9 29 16 - - WZW 1014,5 - - 0,0
16.02.2018 04:00:00 2,2 -1,1 28 15 54 29 WZW 1013,8 - - 0,0
16.02.2018 03:00:00 2,6 -1,2 26 14 57 31 W 1013,1 - - 0,0
16.02.2018 02:00:00 2,2 -1,2 21 11 - - WZW 1012,4 - - 0,0
16.02.2018 01:00:00 2,2 -1,2 24 13 - - ZW 1011,6 - - 0,0
16.02.2018 00:00:00 2,5 -1,5 13 7 - - ZW 1010,8 - - 0,0
15.02.2018 23:00:00 3,6 -1,3 13 7 52 28 WZW 1009,4 - - 0,0
15.02.2018 22:00:00 3,7 -1,0 34 18 52 28 WZW 1007,9 - - 0,0
15.02.2018 21:00:00 3,6 -1,5 31 17 54 29 ZW 1006,9 10 0 0,0
15.02.2018 20:00:00 3,5 -0,6 28 15 48 26 ZW 1006,5 10 0 0,0
15.02.2018 19:00:00 3,8 -0,2 - - - - - 1005,7 10 0 0,0
15.02.2018 18:00:00 3,6 -0,3 0 0 - - N 1004,8 10 0 0,0
15.02.2018 17:00:00 4,2 -0,3 0 0 - - N 1003,8 10 18 0,0
15.02.2018 16:00:00 4,8 -0,3 0 0 - - N 1002,6 10 54 0,0
15.02.2018 15:00:00 5,3 -0,3 0 0 - - N 1001,7 10 60 0,0
15.02.2018 14:00:00 5,1 -0,4 0 0 72 39 N 1000,7 10 54 0,0
15.02.2018 13:00:00 5,4 0,1 48 26 72 39 WZW 999,9 10 60 0,0

tt = temperatuur
td = dauwpunt
ff = windsnelheid
fx = windstoten
dd = windrichting
ppp = luchtdruk
vv = zicht
sd = Zonneschijnduur
rr = neerslag

Weerstations in de omgeving